Location: Home
(42.5358°N, 72.7383°W)
Time: 09:04:41
(UTC-04:00)

FENGYUN 1C DEB - Pass Details

Date: 07 July 2022
Orbit: 665 x 843 km, 99.1° (Epoch: 16 August)

Event Time Altitude Azimuth Distance (km) Brightness Sun altitude
Rises 21:04:59 0° 215° (SW) 3,200 ? -6.0°
Reaches altitude 10° 21:08:25 10° 240° (WSW) 2,321 ? -6.5°
Maximum altitude 21:11:01 14° 271° (W) 2,089 ? -6.9°
Drops below altitude 10° 21:13:41 10° 302° (WNW) 2,386 ? -7.2°
Sets 21:17:20 0° 327° (NNW) 3,357 ? -7.8°
